SCP
0 -0 0 -0 -1 -1 -1 -1 -0 -0 -0 -0 -0 -0 -0 -0 -0 -0 -0 -0 0 -0 -0 0 0 0 0 0 0 0 0 0 0 0 0 0 0 0 0 0 0 0 0
-0 -0 0 -0 -1 -1 -1 -0 -0 -0 -0 -0 -0 -0 -0 -0 -0 -0 -0 -0 -0 -0 0 0 0 0 0 0 0 0 0 0 0 0 0 0 0 0 0 0 0 0 0
-0 -0 0 0 -1 -1 -0 -0 -0 -0 -0 -0 -0 -0 -0 -0 -0 0 0 0 0 0 0 0 0 0 0 0 0 0 0 0 0 0 0 0 0 0 0 0 0 0 0
-0 -0 0 0 -0 -0 -0 -0 -0 -0 -0 -0 -0 -0 -0 -0 -0 -0 0 0 0 0 0 0 0 0 0 0 0 0 0 0 0 0 0 0 -0 0 0 0 0 0 0
-0 -0 0 1 -0 -0 -0 -0 -0 -0 -0 -0 -0 -0 -0 -0 0 0 0 0 0 0 0 0 0 0 0 0 0 0 0 0 0 0 0 -0 -0 0 0 0 0 0 0
-0 0 -0 0 0 -0 -0 -0 -0 -1 -0 -0 -0 -0 -0 0 0 0 0 0 0 0 0 0 0 0 0 0 0 0 0 0 0 0 0 0 0 0 0 0 0 0 0
0 0 -0 -0 0 0 -0 -0 -0 -1 -1 -0 -0 -0 -0 -0 0 0 0 0 0 0 0 0 0 0 0 0 0 0 0 0 0 0 0 0 0 0 0 0 0 0 0
0 0 -0 -0 -0 -0 -0 -0 -0 -0 -0 -0 -0 -0 -0 -0 0 0 0 0 0 0 0 0 0 0 0 0 0 0 0 0 0 0 0 0 0 0 0 0 0 0 0
0 0 -0 -0 -0 -0 -0 -0 -0 -0 -0 -0 -0 -0 -0 -0 0 0 0 0 0 0 0 0 0 0 0 0 0 0 0 0 0 0 0 0 0 0 0 0 0 0 0
0 0 0 -0 -0 -0 -0 -0 0 -0 -0 -0 -0 -0 -0 -0 0 0 0 0 0 0 0 0 0 0 0 0 0 0 0 0 0 0 0 0 0 0 0 0 0 0 0
0 0 -0 0 -0 0 0 -0 -0 0 0 -0 -0 -0 0 0 0 0 0 0 0 0 0 0 0 0 0 0 0 0 0 0 0 0 0 0 0 0 0 0 0 0 0
0 0 0 0 0 0 0 0 0 0 0 0 0 0 0 0 0 0 0 0 0 0 0 0 0 1 0 0 0 0 0 0 0 0 0 0 0 0 0 0 0 0 0
0 0 0 0 0 0 0 0 0 0 0 0 0 0 0 0 0 0 0 0 0 0 0 0 0 0 0 0 0 0 0 0 0 0 0 0 0 0 0 0 0 0 0
0 0 0 0 0 0 0 0 0 0 0 0 0 0 0 0 0 0 0 0 0 0 0 0 0 0 0 0 0 0 0 0 0 0 0 0 0 0 0 0 0 0 0
0 0 0 0 0 0 0 0 0 0 0 0 0 0 0 0 0 0 0 0 0 0 0 0 0 0 0 0 0 0 0 0 0 0 0 0 0 0 0 0 0 0 0
0 0 0 0 0 0 0 0 0 0 0 0 0 0 0 0 0 0 0 0 0 0 0 0 0 0 0 0 0 0 0 0 0 0 0 0 0 0 0 0 0 0 0
0 0 0 0 0 0 0 0 0 0 0 0 0 0 0 0 0 0 0 0 0 0 0 0 0 0 0 0 0 0 0 0 0 0 0 0 0 0 0 0 0 0 0
0 1 1 0 0 0 0 0 0 0 0 0 0 0 0 0 0 0 0 0 0 0 0 0 0 0 0 0 0 0 0 0 0 0 0 0 0 0 0 0 0 0 0
0 1 2 1 0 0 0 0 0 0 0 0 0 0 0 0 0 0 0 0 0 0 0 0 0 0 0 0 0 0 0 0 0 0 0 0 0 0 0 0 0 0 0
0 0 0 2 1 1 0 0 0 0 0 0 0 0 0 0 0 0 0 0 0 0 0 0 0 0 0 0 0 0 0 0 0 0 0 0 0 0 0 0 0 0 0
0 0 0 0 0 0 0 0 0 0 0 0 0 0 0 0 0 0 0 0 0 0 0 0 0 0 0 0 0 0 0 0 0 0 0 0 0 0 0 0 0 0 0
0 0 0 0 0 0 0 1 1 0 0 0 1 1 0 0 0 0 0 0 0 0 0 0 0 0 0 0 0 0 0 0 0 0 0 0 0 0 0 0 0 0 0
0 0 0 0 0 0 0 1 0 0 0 1 1 1 1 1 1 1 0 0 0 0 0 0 0 0 0 0 0 0 0 0 0 0 0 0 0 0 0 0 0 0 0
0 0 0 0 0 0 0 0 1 1 1 1 1 1 1 1 1 1 0 0 0 0 0 0 0 0 0 0 0 0 0 0 0 0 0 0 0 0 0 0 0 0 0
0 0 0 0 0 0 0 0 0 0 0 1 0 1 0 1 1 1 1 0 0 0 0 0 0 0 0 0 0 0 0 0 0 0 0 0 0 0 0 0 0 0 0
0 0 0 0 0 0 0 0 0 0 1 0 0 1 1 0 0 1 1 1 0 0 0 0 0 0 0 0 0 0 0 0 0 0 0 0 0 0 0 0 0 0 0
Wind_Speed_500mb
62 61 59 55 50 47 46 43 42 42 39 36 34 32 32 36 36 37 36 35 32 29 26 23 21 18 15 12 9 5 3 2 2 3 2 2 2 1 2 3 5 8 8
70 68 64 59 53 49 49 48 47 47 46 44 41 43 43 41 39 36 35 34 32 29 26 23 21 19 17 13 10 7 5 4 2 2 3 3 1 2 3 2 6 7 5
71 74 68 64 59 57 57 57 56 55 53 51 49 47 43 40 39 36 33 31 29 27 25 22 20 19 17 14 12 10 8 8 7 8 7 6 5 3 6 6 6 8 5
77 79 75 72 66 65 63 63 61 57 55 52 50 46 42 38 35 33 31 28 25 23 21 20 18 16 15 13 12 10 8 10 12 12 11 8 5 3 7 10 10 6 7
81 83 80 78 72 69 64 62 60 57 54 51 47 43 39 35 32 29 27 24 21 19 18 17 15 13 11 10 9 8 6 10 10 10 10 12 13 10 11 11 13 10 5
85 85 82 79 75 72 69 64 58 55 52 48 43 39 35 32 29 25 23 21 18 16 14 13 13 11 9 9 8 6 5 7 5 4 5 6 7 11 13 15 16 17 8
88 87 84 80 75 72 70 65 58 55 51 47 42 37 32 30 27 25 23 21 18 15 12 11 11 10 8 6 4 4 2 4 6 6 4 2 5 2 3 7 13 17 10
88 87 85 81 77 72 69 65 60 57 52 47 42 38 34 31 28 26 23 21 18 15 14 12 12 10 8 5 4 2 1 7 8 13 12 10 4 8 5 4 7 12 14
85 87 87 82 78 73 69 66 60 57 53 49 44 40 35 32 30 27 24 22 19 18 17 17 16 15 12 9 8 6 6 8 11 12 14 15 12 7 7 5 5 11 15
90 89 88 86 82 76 72 67 61 58 53 47 45 41 37 33 32 30 28 26 23 23 21 21 20 21 19 16 14 12 12 11 12 13 14 13 17 11 8 7 5 9 16
92 90 89 86 84 78 74 70 65 60 55 50 48 45 40 38 37 36 34 31 29 28 26 27 27 28 26 25 23 20 17 16 15 15 14 10 8 11 11 12 9 11 17
95 95 91 88 85 81 76 71 67 65 60 57 54 49 46 42 39 38 38 37 35 32 32 34 33 34 34 32 31 28 23 21 19 16 15 15 14 15 15 17 14 11 17
90 94 91 88 84 81 78 74 70 67 65 61 57 52 49 45 44 44 43 43 39 37 37 39 40 39 38 37 37 35 30 27 23 20 21 20 18 18 19 22 18 11 18
86 89 93 91 86 83 77 75 71 68 67 63 58 56 52 50 50 48 46 45 41 42 42 42 43 42 42 41 41 41 37 33 29 26 28 27 25 21 22 20 18 16 19
60 75 87 89 88 85 81 77 72 71 67 60 57 55 54 53 50 50 51 50 46 44 44 43 44 44 46 44 44 44 41 38 35 32 32 36 31 27 25 19 17 20 20
55 66 72 82 89 86 80 78 74 73 68 62 55 54 57 56 53 53 53 52 51 47 42 40 40 41 45 44 42 41 39 38 37 36 33 36 32 28 27 23 24 22 22
39 71 62 61 88 90 89 88 88 76 66 60 51 48 57 56 58 57 54 53 45 44 39 36 37 39 43 42 40 36 35 33 34 35 34 35 31 27 33 28 31 30 27
27 24 50 58 57 87 98 99 80 74 71 59 47 50 45 42 51 53 51 51 42 42 38 36 35 37 40 39 35 29 30 29 29 30 31 33 32 32 36 32 34 36 36
38 41 40 44 73 95 91 90 83 76 73 55 45 41 44 33 78 64 53 54 46 43 43 38 37 37 40 37 32 28 27 26 24 31 27 28 30 32 29 32 34 37 38
47 56 50 45 44 47 67 81 78 72 55 53 47 58 69 54 79 73 61 59 49 47 45 42 43 39 42 35 33 30 29 28 28 33 30 31 34 35 32 33 33 35 33
36 45 57 57 48 49 52 73 91 92 85 97 75 99 106 87 96 85 64 59 54 52 47 42 44 45 45 37 38 34 31 32 33 33 33 34 39 35 33 34 34 34 34
22 33 51 63 66 58 54 63 84 89 86 92 83 89 102 92 89 86 69 59 56 54 53 47 48 48 48 43 42 32 27 33 32 33 34 38 40 41 37 37 37 36 37
32 29 32 55 67 74 74 70 81 87 85 79 88 96 101 100 96 79 65 59 60 59 57 54 49 47 49 43 42 31 12 18 14 22 25 28 27 22 25 33 37 36 39
39 39 36 37 52 78 82 89 90 97 107 114 107 105 100 99 84 74 61 61 64 62 63 57 48 42 48 48 39 42 44 26 12 9 16 20 20 24 24 28 32 31 34
40 41 40 41 43 51 82 96 104 102 92 79 81 94 97 101 83 62 59 64 65 65 61 57 47 42 43 44 39 38 45 44 45 38 26 31 29 20 22 23 28 34 39
41 44 45 46 47 43 54 78 86 93 88 88 90 97 101 96 68 53 58 65 63 65 58 51 43 42 34 40 39 40 42 42 46 44 42 41 38 26 24 25 26 32 30
Wind_Direction_500mb
181 173 165 163 164 165 164 164 161 160 160 159 157 155 147 136 133 127 124 121 121 122 122 123 122 122 123 126 133 146 167 202 242 261 273 282 271 60 101 101 40 29 57
171 172 165 160 160 160 160 157 156 154 154 153 154 147 140 136 131 126 123 121 119 118 118 119 115 112 110 109 109 109 100 91 115 144 152 182 239 315 306 357 25 17 29
175 171 167 159 159 159 156 156 153 152 151 150 149 145 143 140 135 132 129 124 123 120 119 116 113 109 106 107 105 104 109 117 127 116 122 142 133 68 20 343 6 27 22
177 171 168 161 161 160 158 157 156 155 155 154 152 150 148 144 143 141 136 132 131 130 128 121 118 117 119 117 111 104 111 117 119 112 103 110 108 76 37 23 18 5 16
178 174 171 164 165 162 163 161 159 160 160 160 159 157 156 153 154 150 146 145 144 141 136 137 132 131 128 121 116 113 108 133 119 105 102 103 91 77 62 34 34 13 331
179 177 174 169 170 166 167 166 165 166 167 167 167 168 167 166 163 164 164 161 162 162 161 157 152 154 152 145 137 126 152 158 150 130 133 135 114 97 78 58 36 27 346
180 179 176 173 176 173 170 171 172 175 174 175 176 179 179 181 179 181 182 180 181 181 186 188 183 178 170 156 141 143 155 222 237 233 233 254 236 207 65 49 36 20 2
181 181 180 177 180 180 176 177 179 182 182 184 186 189 192 195 196 197 199 199 197 200 212 219 221 215 201 200 221 187 241 270 270 263 269 266 279 259 272 328 8 5 352
186 185 183 182 183 187 184 184 185 188 191 193 195 197 201 206 210 213 216 218 218 223 227 234 240 246 241 232 238 239 252 268 287 282 280 267 254 256 266 262 328 338 339
189 191 186 186 187 191 192 190 192 195 199 201 205 206 209 216 223 227 231 231 236 239 241 247 253 258 257 257 253 245 250 257 270 276 290 280 257 245 263 265 279 306 326
194 195 192 191 191 194 198 196 196 201 204 210 214 215 218 224 229 235 239 241 244 248 252 255 257 260 262 265 264 261 260 260 259 280 278 277 263 249 257 257 260 294 322
200 199 197 196 196 198 201 203 202 204 208 213 220 222 226 231 237 242 245 247 249 252 256 260 260 262 263 266 268 267 267 265 258 272 253 258 265 262 262 259 253 291 318
205 205 202 202 202 203 205 206 208 211 212 217 222 228 233 238 241 244 247 248 255 259 263 264 267 266 270 271 272 271 269 266 259 252 244 253 258 270 271 263 256 281 315
211 211 206 205 206 209 210 212 212 215 220 220 225 231 238 242 247 251 256 258 261 268 269 270 271 275 273 273 272 271 268 266 262 247 242 247 259 271 276 266 262 274 306
232 225 221 212 209 211 214 217 219 220 225 229 232 238 246 247 253 261 266 268 271 273 274 273 275 277 277 275 274 273 269 266 261 254 249 243 254 264 275 262 277 268 294
240 231 231 232 219 216 217 224 227 228 227 232 240 248 254 257 261 266 270 272 275 278 276 276 274 275 275 273 271 270 268 263 259 254 251 237 246 262 272 271 276 283 282
260 242 234 247 234 223 221 224 225 230 233 238 249 258 265 265 273 273 276 273 273 275 275 272 267 269 273 273 273 270 267 264 260 245 240 234 249 273 279 271 267 282 280
273 269 251 249 234 239 231 230 230 231 235 234 252 256 266 277 280 275 276 274 270 268 268 266 264 266 269 271 272 266 262 264 254 232 233 239 255 265 268 273 271 275 278
259 269 263 246 226 236 236 242 238 234 239 236 257 284 270 302 287 275 274 277 268 263 264 269 266 263 265 267 270 259 257 260 244 229 233 251 255 269 270 269 269 269 269
255 262 256 264 257 250 238 235 233 233 230 242 248 240 243 255 245 270 267 273 273 267 264 269 270 264 265 263 262 250 248 249 245 238 239 255 255 264 275 273 271 261 262
251 255 258 254 258 258 247 227 226 226 217 234 248 250 248 251 252 264 270 271 273 272 273 270 267 262 260 255 254 249 245 249 252 247 245 250 258 268 273 273 268 263 258
282 253 245 256 251 250 251 244 234 220 228 247 240 240 238 255 253 259 263 269 276 276 274 273 269 263 258 245 247 247 253 254 250 245 244 253 268 269 268 273 268 260 259
279 275 257 246 246 250 242 239 240 234 236 236 234 244 251 253 254 253 262 272 275 275 276 277 273 266 261 248 242 231 207 225 209 233 245 265 265 269 262 265 266 263 262
278 276 268 261 247 239 241 241 243 248 249 250 255 264 261 256 257 257 264 270 271 275 276 276 273 270 259 245 237 228 230 243 221 210 239 258 245 286 287 281 269 262 264
290 285 284 272 263 252 239 239 244 249 252 249 253 258 261 256 261 259 263 264 267 274 274 271 265 263 257 242 237 238 234 242 247 253 257 259 271 267 291 279 273 275 273
291 290 290 281 269 269 254 242 241 244 248 246 250 253 253 257 258 249 255 259 265 271 268 262 254 255 252 246 246 240 241 240 241 249 253 261 270 265 281 280 282 277 272
Wind_Speed_850mb
62 61 59 55 50 47 46 43 42 42 39 36 34 32 32 36 36 37 36 35 32 29 26 23 21 18 15 12 9 5 3 2 2 3 2 2 2 1 2 3 5 8 8
70 68 64 59 53 49 49 48 47 47 46 44 41 43 43 41 39 36 35 34 32 29 26 23 21 19 17 13 10 7 5 4 2 2 3 3 1 2 3 2 6 7 5
71 74 68 64 59 57 57 57 56 55 53 51 49 47 43 40 39 36 33 31 29 27 25 22 20 19 17 14 12 10 8 8 7 8 7 6 5 3 6 6 6 8 5
77 79 75 72 66 65 63 63 61 57 55 52 50 46 42 38 35 33 31 28 25 23 21 20 18 16 15 13 12 10 8 10 12 12 11 8 5 3 7 10 10 6 7
81 83 80 78 72 69 64 62 60 57 54 51 47 43 39 35 32 29 27 24 21 19 18 17 15 13 11 10 9 8 6 10 10 10 10 12 13 10 11 11 13 10 5
85 85 82 79 75 72 69 64 58 55 52 48 43 39 35 32 29 25 23 21 18 16 14 13 13 11 9 9 8 6 5 7 5 4 5 6 7 11 13 15 16 17 8
88 87 84 80 75 72 70 65 58 55 51 47 42 37 32 30 27 25 23 21 18 15 12 11 11 10 8 6 4 4 2 4 6 6 4 2 5 2 3 7 13 17 10
88 87 85 81 77 72 69 65 60 57 52 47 42 38 34 31 28 26 23 21 18 15 14 12 12 10 8 5 4 2 1 7 8 13 12 10 4 8 5 4 7 12 14
85 87 87 82 78 73 69 66 60 57 53 49 44 40 35 32 30 27 24 22 19 18 17 17 16 15 12 9 8 6 6 8 11 12 14 15 12 7 7 5 5 11 15
90 89 88 86 82 76 72 67 61 58 53 47 45 41 37 33 32 30 28 26 23 23 21 21 20 21 19 16 14 12 12 11 12 13 14 13 17 11 8 7 5 9 16
92 90 89 86 84 78 74 70 65 60 55 50 48 45 40 38 37 36 34 31 29 28 26 27 27 28 26 25 23 20 17 16 15 15 14 10 8 11 11 12 9 11 17
95 95 91 88 85 81 76 71 67 65 60 57 54 49 46 42 39 38 38 37 35 32 32 34 33 34 34 32 31 28 23 21 19 16 15 15 14 15 15 17 14 11 17
90 94 91 88 84 81 78 74 70 67 65 61 57 52 49 45 44 44 43 43 39 37 37 39 40 39 38 37 37 35 30 27 23 20 21 20 18 18 19 22 18 11 18
86 89 93 91 86 83 77 75 71 68 67 63 58 56 52 50 50 48 46 45 41 42 42 42 43 42 42 41 41 41 37 33 29 26 28 27 25 21 22 20 18 16 19
60 75 87 89 88 85 81 77 72 71 67 60 57 55 54 53 50 50 51 50 46 44 44 43 44 44 46 44 44 44 41 38 35 32 32 36 31 27 25 19 17 20 20
55 66 72 82 89 86 80 78 74 73 68 62 55 54 57 56 53 53 53 52 51 47 42 40 40 41 45 44 42 41 39 38 37 36 33 36 32 28 27 23 24 22 22
39 71 62 61 88 90 89 88 88 76 66 60 51 48 57 56 58 57 54 53 45 44 39 36 37 39 43 42 40 36 35 33 34 35 34 35 31 27 33 28 31 30 27
27 24 50 58 57 87 98 99 80 74 71 59 47 50 45 42 51 53 51 51 42 42 38 36 35 37 40 39 35 29 30 29 29 30 31 33 32 32 36 32 34 36 36
38 41 40 44 73 95 91 90 83 76 73 55 45 41 44 33 78 64 53 54 46 43 43 38 37 37 40 37 32 28 27 26 24 31 27 28 30 32 29 32 34 37 38
47 56 50 45 44 47 67 81 78 72 55 53 47 58 69 54 79 73 61 59 49 47 45 42 43 39 42 35 33 30 29 28 28 33 30 31 34 35 32 33 33 35 33
36 45 57 57 48 49 52 73 91 92 85 97 75 99 106 87 96 85 64 59 54 52 47 42 44 45 45 37 38 34 31 32 33 33 33 34 39 35 33 34 34 34 34
22 33 51 63 66 58 54 63 84 89 86 92 83 89 102 92 89 86 69 59 56 54 53 47 48 48 48 43 42 32 27 33 32 33 34 38 40 41 37 37 37 36 37
32 29 32 55 67 74 74 70 81 87 85 79 88 96 101 100 96 79 65 59 60 59 57 54 49 47 49 43 42 31 12 18 14 22 25 28 27 22 25 33 37 36 39
39 39 36 37 52 78 82 89 90 97 107 114 107 105 100 99 84 74 61 61 64 62 63 57 48 42 48 48 39 42 44 26 12 9 16 20 20 24 24 28 32 31 34
40 41 40 41 43 51 82 96 104 102 92 79 81 94 97 101 83 62 59 64 65 65 61 57 47 42 43 44 39 38 45 44 45 38 26 31 29 20 22 23 28 34 39
41 44 45 46 47 43 54 78 86 93 88 88 90 97 101 96 68 53 58 65 63 65 58 51 43 42 34 40 39 40 42 42 46 44 42 41 38 26 24 25 26 32 30
Wind_Direction_850mb
181 173 165 163 164 165 164 164 161 160 160 159 157 155 147 136 133 127 124 121 121 122 122 123 122 122 123 126 133 146 167 202 242 261 273 282 271 60 101 101 40 29 57
171 172 165 160 160 160 160 157 156 154 154 153 154 147 140 136 131 126 123 121 119 118 118 119 115 112 110 109 109 109 100 91 115 144 152 182 239 315 306 357 25 17 29
175 171 167 159 159 159 156 156 153 152 151 150 149 145 143 140 135 132 129 124 123 120 119 116 113 109 106 107 105 104 109 117 127 116 122 142 133 68 20 343 6 27 22
177 171 168 161 161 160 158 157 156 155 155 154 152 150 148 144 143 141 136 132 131 130 128 121 118 117 119 117 111 104 111 117 119 112 103 110 108 76 37 23 18 5 16
178 174 171 164 165 162 163 161 159 160 160 160 159 157 156 153 154 150 146 145 144 141 136 137 132 131 128 121 116 113 108 133 119 105 102 103 91 77 62 34 34 13 331
179 177 174 169 170 166 167 166 165 166 167 167 167 168 167 166 163 164 164 161 162 162 161 157 152 154 152 145 137 126 152 158 150 130 133 135 114 97 78 58 36 27 346
180 179 176 173 176 173 170 171 172 175 174 175 176 179 179 181 179 181 182 180 181 181 186 188 183 178 170 156 141 143 155 222 237 233 233 254 236 207 65 49 36 20 2
181 181 180 177 180 180 176 177 179 182 182 184 186 189 192 195 196 197 199 199 197 200 212 219 221 215 201 200 221 187 241 270 270 263 269 266 279 259 272 328 8 5 352
186 185 183 182 183 187 184 184 185 188 191 193 195 197 201 206 210 213 216 218 218 223 227 234 240 246 241 232 238 239 252 268 287 282 280 267 254 256 266 262 328 338 339
189 191 186 186 187 191 192 190 192 195 199 201 205 206 209 216 223 227 231 231 236 239 241 247 253 258 257 257 253 245 250 257 270 276 290 280 257 245 263 265 279 306 326
194 195 192 191 191 194 198 196 196 201 204 210 214 215 218 224 229 235 239 241 244 248 252 255 257 260 262 265 264 261 260 260 259 280 278 277 263 249 257 257 260 294 322
200 199 197 196 196 198 201 203 202 204 208 213 220 222 226 231 237 242 245 247 249 252 256 260 260 262 263 266 268 267 267 265 258 272 253 258 265 262 262 259 253 291 318
205 205 202 202 202 203 205 206 208 211 212 217 222 228 233 238 241 244 247 248 255 259 263 264 267 266 270 271 272 271 269 266 259 252 244 253 258 270 271 263 256 281 315
211 211 206 205 206 209 210 212 212 215 220 220 225 231 238 242 247 251 256 258 261 268 269 270 271 275 273 273 272 271 268 266 262 247 242 247 259 271 276 266 262 274 306
232 225 221 212 209 211 214 217 219 220 225 229 232 238 246 247 253 261 266 268 271 273 274 273 275 277 277 275 274 273 269 266 261 254 249 243 254 264 275 262 277 268 294
240 231 231 232 219 216 217 224 227 228 227 232 240 248 254 257 261 266 270 272 275 278 276 276 274 275 275 273 271 270 268 263 259 254 251 237 246 262 272 271 276 283 282
260 242 234 247 234 223 221 224 225 230 233 238 249 258 265 265 273 273 276 273 273 275 275 272 267 269 273 273 273 270 267 264 260 245 240 234 249 273 279 271 267 282 280
273 269 251 249 234 239 231 230 230 231 235 234 252 256 266 277 280 275 276 274 270 268 268 266 264 266 269 271 272 266 262 264 254 232 233 239 255 265 268 273 271 275 278
259 269 263 246 226 236 236 242 238 234 239 236 257 284 270 302 287 275 274 277 268 263 264 269 266 263 265 267 270 259 257 260 244 229 233 251 255 269 270 269 269 269 269
255 262 256 264 257 250 238 235 233 233 230 242 248 240 243 255 245 270 267 273 273 267 264 269 270 264 265 263 262 250 248 249 245 238 239 255 255 264 275 273 271 261 262
251 255 258 254 258 258 247 227 226 226 217 234 248 250 248 251 252 264 270 271 273 272 273 270 267 262 260 255 254 249 245 249 252 247 245 250 258 268 273 273 268 263 258
282 253 245 256 251 250 251 244 234 220 228 247 240 240 238 255 253 259 263 269 276 276 274 273 269 263 258 245 247 247 253 254 250 245 244 253 268 269 268 273 268 260 259
279 275 257 246 246 250 242 239 240 234 236 236 234 244 251 253 254 253 262 272 275 275 276 277 273 266 261 248 242 231 207 225 209 233 245 265 265 269 262 265 266 263 262
278 276 268 261 247 239 241 241 243 248 249 250 255 264 261 256 257 257 264 270 271 275 276 276 273 270 259 245 237 228 230 243 221 210 239 258 245 286 287 281 269 262 264
290 285 284 272 263 252 239 239 244 249 252 249 253 258 261 256 261 259 263 264 267 274 274 271 265 263 257 242 237 238 234 242 247 253 257 259 271 267 291 279 273 275 273
291 290 290 281 269 269 254 242 241 244 248 246 250 253 253 257 258 249 255 259 265 271 268 262 254 255 252 246 246 240 241 240 241 249 253 261 270 265 281 280 282 277 272